Volver al catálogo

BREEZE-M R/B

ActivoHEO
NORAD 33280·ROCKET BODY·🇷🇺 Russia

Lanzado Aug 18, 2008 desde Baikonur Cosmodrome

Loading…

Próximos Pases (próximas 24 horas)

TLE

ActualizadoSource: Space-Track

Época: Sep 10, 2026, 19:34 UTC

1 33280U 08039C   26253.81578757 -.00000202  00000-0  00000-0 0  9997
2 33280  23.1685 352.2551 5961655  15.0752 356.7917  2.01427693132854

Sigue BREEZE-M R/B en tiempo real con AllMySat

Download on the App Store